Domov               UVHVVR             MKGP            O straneh              
ZDRAVSTVENO VARSTVO RASTLIN
  MREŽA AGROMET. POSTAJ
 ► PROGNOSTIČNA OBVESTILA
AGROMETEOROLOŠKI PODATKI -
ARSO
OBVLADOVANJE TVEGANJ ZARADI
NEUGODNIH VREMENSKIH RAZMER
  ► NARAVNE NESREČE
  ► SUŠA/MOČA
  ► NAMAKANJE
  ► ŽLED (gozdarstvo)
KARTOGRAFSKI PRIKAZI
SPLETNE POVEZAVE
PROJEKTI IN PUBLIKACIJE

AGROMETEOROLOŠKA MREŽA: VREMENSKE POSTAJE IN FENOLOŠKA OPAZOVANJA

Pregled podatkov za lokacijo Virštanj, meteorološka postaja 39749

Pregled senzorjev na lokaciji

ID Ime Zadnja
vrednost
Datum
zadnje
spremembe
Tip
senzorja
3124 Temperatura 2 m ( °C) 14,29 °C 23.8.2017 05:00 50YA
3125 Relativna vlaga 2 m (% RH) 68,47 % RH 23.8.2017 05:00 50YA
3127 Padavine 0.2 mm (mm) 0 mm 23.8.2017 05:00 Rain-O-Matic

Pregled podatkov zadnjih 24 ur

Zap.
št.
Datum in čas Virštanj
Padavine
0.2
mm
Relativna
vlaga
2
m
Temperatura
2
m
0 23.8.2017 04:00 0 68,47 14,29
1 23.8.2017 03:30 0 69,08 14,38
2 23.8.2017 03:00 0 68,67 14,41
3 23.8.2017 02:30 0 66,3 14,55
4 23.8.2017 02:00 0 65,91 14,36
5 23.8.2017 01:30 0 60,73 15,38
6 23.8.2017 01:00 0 59,63 15,46
7 23.8.2017 00:30 0 58,66 15,8
8 23.8.2017 00:00 0 58,14 15,82
9 22.8.2017 23:30 0 55,34 16,48
10 22.8.2017 23:00 0 54,73 16,73
11 22.8.2017 22:30 0 53,63 16,97
12 22.8.2017 22:00 0 51,4 17,68
13 22.8.2017 21:30 0 50,35 17,97
14 22.8.2017 21:00 0 48,23 18,12
15 22.8.2017 20:30 0 48,42 18,36
16 22.8.2017 20:00 0 47,57 18,71
17 22.8.2017 19:30 0 49,4 18,75
18 22.8.2017 19:00 0 52,65 18,49
19 22.8.2017 18:30 0 52,19 18,73
20 22.8.2017 18:00 0 50,11 19,56
21 22.8.2017 17:30 0 47,03 20,54
22 22.8.2017 17:00 0 44,18 22,3
23 22.8.2017 16:30 0 42,42 23,05
24 22.8.2017 16:00 0 41,03 23,25
25 22.8.2017 15:30 0 37,51 23,91
26 22.8.2017 15:00 0 36,8 24,47
27 22.8.2017 14:30 0 36,95 24,13
28 22.8.2017 14:00 0 37,31 24,2
29 22.8.2017 13:30 0 37,7 23,47
30 22.8.2017 13:00 0 38,24 22,61
31 22.8.2017 12:30 0 38,9 22,32
32 22.8.2017 12:00 0 38,88 22,78
33 22.8.2017 11:30 0 39,58 22,54
34 22.8.2017 11:00 0 43,71 21,78
35 22.8.2017 10:30 0 48,77 20,05
36 22.8.2017 10:00 0 51,84 19,71
37 22.8.2017 09:30 0 59,51 19,68
38 22.8.2017 09:00 0 63,2 19,37
39 22.8.2017 08:30 0 63,27 19,29
40 22.8.2017 08:00 0 58,73 17,44
41 22.8.2017 07:30 0 63,93 15,36
42 22.8.2017 07:00 0 65,23 15,31
43 22.8.2017 06:30 0 61,44 14,04
© 2011 Ministrstvo za kmetijstvo, gozdarstvo in prehrano. Vse pravice pridržane.